GW4499 Weather Reports


Display with metric or nautical units.
time (UTC)temp
F
wind
direction
speed
MPH
gust
MPH
rain 1hr
in
rain 24hr
in
rain mn
in
humidity
%
barometer
mb
20260831030039 65 0.0 1.0 0.00 0.01 0.01 72 1017.5
20260831025019 64 0.0 0.0 0.00 0.01 0.01 74 1016.8
20260831024019 65 0.0 0.0 0.00 0.01 0.01 72 1016.5
20260831023019 65 0.0 0.0 0.00 0.01 0.01 71 1016.6
20260831022019 65 0.0 0.0 0.00 0.01 0.01 71 1016.3
20260831021019 66 0.0 0.0 0.00 0.01 0.01 69 1016.4
20260831020041 67 0.0 0.0 0.00 0.01 0.01 68 1016.1
20260831015019 67 0.0 0.0 0.00 0.01 0.01 67 1016.4
20260831014019 68 0.0 0.0 0.00 0.01 0.01 65 1016.8
20260831013018 68 0.0 0.0 0.00 0.01 0.01 63 1016.5
20260831012019 69 0.0 0.0 0.00 0.01 0.01 64 1016.7
20260831011018 69 0.0 1.0 0.00 0.01 0.01 63 1016.8
20260831010039 70 0.0 0.0 0.00 0.01 0.01 60 1016.8
20260831005018 70 0.0 0.0 0.00 0.01 0.01 56 1016.9
20260831004018 70 0.0 0.0 0.00 0.01 0.01 58 1017.2
20260831003018 71 0.0 0.0 0.00 0.01 0.01 58 1017.4
20260831002018 71 0.0 0.0 0.00 0.01 0.01 57 1017.5
20260831001019 72 0.0 0.0 0.00 0.01 0.01 53 1017.6
20260831000019 72 0.0 0.0 0.00 0.01 0.01 52 1017.5
20260830235019 73 0.0 0.0 0.00 0.01 0.01 56 1017.3
20260830234019 72 0.0 0.0 0.00 0.01 0.01 54 1017.2
20260830233021 72 0.0 1.0 0.00 0.01 0.01 50 1017.0
20260830232021 72 0.0 1.0 0.00 0.01 0.01 46 1016.7
20260830231020 72 0.0 0.0 0.00 0.01 0.01 50 1016.8
20260830230020 72 0.0 0.0 0.00 0.01 0.01 48 1016.5
20260830225020 72 0.0 1.0 0.00 0.01 0.01 51 1016.3
20260830224021 72 0.0 0.0 0.00 0.01 0.01 57 1016.7
20260830223020 72 0.0 0.0 0.00 0.01 0.01 50 1016.7
20260830222021 72 0.0 0.0 0.00 0.01 0.01 48 1016.7
20260830221020 73 0.0 1.0 0.00 0.01 0.01 44 1016.5
20260830220041 73 0.0 0.0 0.00 0.01 0.01 47 1016.7
20260830215020 73 0.0 0.0 0.00 0.01 0.01 54 1017.2
20260830214021 73 0.0 0.0 0.00 0.01 0.01 55 1017.2
20260830213020 72 0.0 0.0 0.00 0.01 0.01 58 1017.2
20260830212020 72 315 1.0 2.0 0.00 0.01 0.01 61 1017.5
20260830211020 71 0.0 0.0 0.00 0.01 0.01 62 1017.3
20260830210020 73 0.0 0.0 0.00 0.01 0.01 62 1017.9
20260830205020 74 0.0 0.0 0.00 0.01 0.01 58 1017.8
20260830204040 74 0.0 0.0 0.00 0.01 0.01 57 1018.0
20260830203020 74 0.0 0.0 0.00 0.01 0.01 52 1017.9
20260830202020 74 0.0 2.0 0.00 0.01 0.01 51 1017.9
20260830201020 74 315 1.0 3.0 0.00 0.01 0.01 52 1018.1
20260830200020 74 293 1.0 4.0 0.00 0.01 0.01 53 1017.8
20260830195020 73 0.0 0.0 0.00 0.01 0.01 58 1016.9
20260830194020 72 0.0 2.0 0.01 0.01 0.01 61 1016.3
20260830193021 72 338 1.0 3.0 0.01 0.01 0.01 57 1016.2
20260830192040 71 0.0 0.0 0.01 0.01 0.01 63 1016.1
20260830191020 70 315 1.0 4.0 0.01 0.01 0.01 65 1016.3
20260830190020 71 315 1.0 4.0 0.01 0.01 0.01 65 1016.6
20260830185020 73 315 2.0 5.0 0.01 0.01 0.01 59 1017.2
20260830184020 83 315 2.0 6.0 0.00 0.00 0.00 33 1018.4
20260830183020 84 0.0 2.0 0.00 0.00 0.00 34 1017.0
20260830182020 84 0.0 3.0 0.00 0.00 0.00 35 1016.9
20260830181020 84 0.0 0.0 0.00 0.00 0.00 33 1016.9
20260830180040 84 0.0 1.0 0.00 0.00 0.00 36 1017.2
20260830175020 83 0.0 2.0 0.00 0.00 0.00 35 1017.2
20260830174022 81 315 1.0 2.0 0.00 0.00 0.00 37 1016.9
20260830173020 80 0.0 2.0 0.00 0.00 0.00 40 1017.2
20260830172020 80 315 1.0 2.0 0.00 0.00 0.00 39 1017.3
20260830171020 78 0.0 1.0 0.00 0.00 0.00 44 1017.0
20260830170020 78 0.0 1.0 0.00 0.00 0.00 42 1017.0
20260830165040 77 0.0 1.0 0.00 0.00 0.00 45 1016.7
20260830164020 76 0.0 0.0 0.00 0.00 0.00 48 1016.5
20260830163020 75 0.0 0.0 0.00 0.00 0.00 50 1016.7
20260830162020 74 0.0 1.0 0.00 0.00 0.00 55 1016.9
20260830161020 74 0.0 0.0 0.00 0.00 0.00 54 1017.1
20260830160040 73 0.0 0.0 0.00 0.00 0.00 55 1016.9
20260830155040 72 0.0 0.0 0.00 0.00 0.00 56 1016.8
20260830154020 71 0.0 1.0 0.00 0.00 0.00 58 1017.0
20260830153020 70 0.0 1.0 0.00 0.00 0.00 59 1016.9
20260830152020 69 315 1.0 3.0 0.00 0.00 0.00 64 1017.1
20260830151020 68 0.0 0.0 0.00 0.00 0.00 70 1016.9
20260830150020 67 0.0 0.0 0.00 0.00 0.00 75 1016.2
20260830145020 66 0.0 0.0 0.00 0.00 0.00 74 1016.3
20260830144020 66 0.0 0.0 0.00 0.00 0.00 72 1016.3
20260830143020 66 0.0 0.0 0.00 0.00 0.00 72 1016.0
20260830142020 65 0.0 0.0 0.00 0.00 0.00 72 1016.1
20260830141020 65 0.0 0.0 0.00 0.00 0.00 73 1016.1
20260830140020 65 0.0 0.0 0.00 0.00 0.00 68 1016.0
20260830135019 65 0.0 0.0 0.00 0.00 0.00 67 1015.8
20260830134022 66 0.0 0.0 0.00 0.00 0.00 63 1015.9
20260830133019 66 0.0 0.0 0.00 0.00 0.00 62 1016.0
20260830132020 67 0.0 0.0 0.00 0.00 0.00 60 1015.9
20260830131019 67 0.0 0.0 0.00 0.00 0.00 57 1015.5
20260830130019 67 0.0 0.0 0.00 0.00 0.00 56 1015.6
20260830125019 67 135 1.0 2.0 0.00 0.00 0.00 56 1015.7
20260830124019 68 158 1.0 4.0 0.00 0.00 0.00 54 1016.1
20260830123019 69 135 1.0 4.0 0.00 0.00 0.00 50 1015.4
20260830122019 70 0.0 1.0 0.00 0.00 0.00 48 1016.6
20260830121020 70 0.0 1.0 0.00 0.00 0.00 49 1016.4
20260830120020 69 0.0 2.0 0.00 0.00 0.00 49 1016.4
20260830115019 67 0.0 1.0 0.00 0.00 0.00 54 1016.3
20260830114019 67 0.0 0.0 0.00 0.00 0.00 54 1016.5
20260830113019 67 0.0 1.0 0.00 0.00 0.00 55 1016.3
20260830112019 68 0.0 0.0 0.00 0.00 0.00 54 1016.5
20260830111039 67 0.0 2.0 0.00 0.00 0.00 58 1016.0
20260830110020 66 0.0 2.0 0.00 0.00 0.00 58 1016.0
20260830105019 66 0.0 1.0 0.00 0.00 0.00 59 1015.6
20260830104019 65 0.0 3.0 0.00 0.00 0.00 66 1015.6
20260830103040 64 0.0 0.0 0.00 0.00 0.00 66 1015.3
20260830102019 65 0.0 0.0 0.00 0.00 0.00 66 1016.1
20260830101019 65 0.0 0.0 0.00 0.00 0.00 65 1016.1
20260830100019 66 0.0 0.0 0.00 0.00 0.00 66 1016.3
20260830095019 66 0.0 0.0 0.00 0.00 0.00 63 1016.2
20260830094019 66 0.0 0.0 0.00 0.00 0.00 63 1016.2
20260830093020 66 0.0 0.0 0.00 0.00 0.00 62 1016.1
20260830092019 66 0.0 0.0 0.00 0.00 0.00 61 1016.6
20260830091039 66 0.0 0.0 0.00 0.00 0.00 61 1016.4
20260830090019 67 0.0 0.0 0.00 0.00 0.00 62 1016.6
20260830085019 66 0.0 0.0 0.00 0.00 0.00 62 1017.9
20260830084019 66 0.0 0.0 0.00 0.00 0.00 62 1017.6
20260830083019 66 0.0 0.0 0.00 0.00 0.00 63 1016.7
20260830082019 67 0.0 0.0 0.00 0.00 0.00 61 1017.3
20260830081039 67 0.0 0.0 0.00 0.00 0.00 58 1017.1
20260830080019 68 0.0 0.0 0.00 0.00 0.00 57 1017.1
20260830075019 68 0.0 0.0 0.00 0.00 0.00 55 1016.9
20260830074039 67 0.0 1.0 0.00 0.00 0.00 55 1016.6
20260830073019 66 0.0 0.0 0.00 0.00 0.00 58 1016.3
20260830072019 67 0.0 0.0 0.00 0.00 0.00 56 1016.5
20260830071019 67 0.0 0.0 0.00 0.00 0.00 59 1016.7
20260830070020 67 0.0 1.0 0.00 0.00 0.00 58 1016.7
20260830065019 66 0.0 0.0 0.00 0.00 0.00 59 1016.7
20260830064021 67 0.0 0.0 0.00 0.00 0.00 61 1016.8
20260830063019 67 0.0 0.0 0.00 0.00 0.00 60 1016.9
20260830062019 67 0.0 0.0 0.00 0.00 0.00 59 1017.4
20260830061019 67 0.0 0.0 0.00 0.00 0.00 60 1017.4
20260830060019 67 0.0 0.0 0.00 0.00 0.00 58 1017.4
20260830055019 67 0.0 0.0 0.00 0.00 0.00 58 1017.4
20260830054019 67 0.0 1.0 0.00 0.00 0.00 58 1017.7
20260830053019 68 0.0 0.0 0.00 0.00 0.00 57 1017.7
20260830052039 68 0.0 0.0 0.00 0.00 0.00 56 1017.6
20260830051019 68 0.0 0.0 0.00 0.00 0.00 55 1017.6
20260830050019 68 0.0 0.0 0.00 0.00 0.00 58 1017.7
20260830045039 67 0.0 0.0 0.00 0.00 0.00 57 1016.9
20260830044019 67 0.0 0.0 0.00 0.00 0.00 56 1016.7
20260830043039 68 0.0 0.0 0.00 0.00 0.00 54 1017.0
20260830042019 68 0.0 0.0 0.00 0.00 0.00 53 1016.6
20260830041019 68 0.0 0.0 0.00 0.00 0.00 53 1016.9
20260830040019 68 0.0 0.0 0.00 0.00 0.00 53 1017.0
20260830035019 69 0.0 0.0 0.00 0.00 0.00 51 1016.6
20260830034019 69 0.0 0.0 0.00 0.00 0.00 49 1016.5
20260830033019 70 0.0 0.0 0.00 0.00 0.00 49 1016.5
20260830032019 70 0.0 0.0 0.00 0.00 0.00 47 1016.2
20260830031019 70 0.0 0.0 0.00 0.00 0.00 46 1016.3